Baltimore Weather Center

Moon Phase Calendar



Online Cameras

 


      

Current Conditions in Baltimore
8/5/2021 4:34:44 PM

86°F
Feels Like 87
Clouds
Humidity
45%
Pressure
30.06"
Wind
3 mph (E)
Dew Point
62°F
UV Index
2/10 (Low)
Visibility
6 mi

Hourly Forecast

Date & Time Thu, Aug 5
4:00 PM
Thu, Aug 5
5:00 PM
Thu, Aug 5
6:00 PM
Thu, Aug 5
7:00 PM
Thu, Aug 5
8:00 PM
Thu, Aug 5
9:00 PM
Thu, Aug 5
10:00 PM
Thu, Aug 5
11:00 PM
Fri, Aug 6
12:00 AM
Fri, Aug 6
1:00 AM
Fri, Aug 6
2:00 AM
Fri, Aug 6
3:00 AM
Fri, Aug 6
4:00 AM
Fri, Aug 6
5:00 AM
Fri, Aug 6
6:00 AM
Fri, Aug 6
7:00 AM
Fri, Aug 6
8:00 AM
Fri, Aug 6
9:00 AM
Fri, Aug 6
10:00 AM
Fri, Aug 6
11:00 AM
Fri, Aug 6
12:00 PM
Fri, Aug 6
1:00 PM
Fri, Aug 6
2:00 PM
Fri, Aug 6
3:00 PM
Fri, Aug 6
4:00 PM
Fri, Aug 6
5:00 PM
Fri, Aug 6
6:00 PM
Fri, Aug 6
7:00 PM
Fri, Aug 6
8:00 PM
Fri, Aug 6
9:00 PM
Fri, Aug 6
10:00 PM
Fri, Aug 6
11:00 PM
Sat, Aug 7
12:00 AM
Sat, Aug 7
1:00 AM
Sat, Aug 7
2:00 AM
Sat, Aug 7
3:00 AM
Sat, Aug 7
4:00 AM
Sat, Aug 7
5:00 AM
Sat, Aug 7
6:00 AM
Sat, Aug 7
7:00 AM
Sat, Aug 7
8:00 AM
Sat, Aug 7
9:00 AM
Sat, Aug 7
10:00 AM
Sat, Aug 7
11:00 AM
Sat, Aug 7
12:00 PM
Sat, Aug 7
1:00 PM
Sat, Aug 7
2:00 PM
Sat, Aug 7
3:00 PM
Condition
Clouds

Clouds

Clouds

Clouds

Clouds

Rain

Clouds

Clouds

Clouds

Clouds

Clouds

Clear

Clear

Clear

Clear

Clear

Clear

Clear

Clear

Clear

Clouds

Clouds

Clouds

Clouds

Clouds

Clouds

Clouds

Clouds

Clouds

Clouds

Clouds

Clouds

Clouds

Clouds

Clouds

Clouds

Clouds

Clouds

Clouds

Clouds

Clouds

Clouds

Clouds

Clouds

Clouds

Clouds

Clouds

Clouds
Temperature 86°F86°F86°F84°F82°F77°F75°F75°F74°F73°F72°F72°F71°F70°F70°F70°F73°F77°F81°F83°F85°F85°F86°F87°F87°F87°F85°F83°F80°F79°F78°F77°F76°F75°F74°F74°F72°F72°F71°F72°F74°F76°F79°F81°F82°F84°F84°F84°F
Feels Like 86°F87°F86°F85°F83°F78°F76°F75°F74°F73°F72°F72°F71°F71°F70°F71°F73°F77°F81°F83°F85°F86°F87°F87°F88°F88°F86°F84°F81°F79°F78°F77°F76°F75°F75°F74°F73°F72°F72°F72°F74°F77°F79°F83°F84°F85°F85°F84°F
Cloudiness 32%40%37%37%33%34%57%69%55%44%37%0%0%0%0%0%0%0%1%4%20%36%47%100%100%82%82%81%84%100%100%100%100%100%100%100%100%100%100%100%100%100%100%100%100%100%100%100%
Visibility 6 mi6 mi6 mi6 mi6 mi6 mi6 mi6 mi6 mi6 mi6 mi6 mi6 mi6 mi6 mi6 mi6 mi6 mi6 mi6 mi6 mi6 mi6 mi6 mi6 mi6 mi6 mi6 mi6 mi6 mi6 mi6 mi6 mi6 mi6 mi6 mi6 mi6 mi6 mi6 mi6 mi6 mi6 mi6 mi6 mi6 mi6 mi6 mi
Precipitation 0%0%0%0%0%36%12%9%5%0%0%0%0%0%0%0%0%0%0%0%0%0%0%0%0%0%0%0%0%0%0%0%0%0%0%0%0%0%0%0%0%0%0%0%0%0%0%2%
Humidity 43%45%44%46%51%61%64%63%62%63%67%70%72%73%73%72%64%56%50%47%45%45%43%42%42%44%48%51%54%58%61%63%64%66%67%70%73%75%77%77%73%69%63%60%56%51%50%49%
Dew Point 61°F62°F61°F61°F62°F63°F62°F61°F60°F60°F60°F61°F61°F61°F61°F60°F60°F60°F60°F60°F60°F61°F61°F60°F61°F61°F63°F63°F62°F62°F63°F63°F63°F63°F62°F63°F63°F63°F63°F64°F64°F65°F65°F65°F65°F63°F62°F62°F
Pressure 30.06"30.06"30.06"30.06"30.09"30.12"30.12"30.12"30.12"30.12"30.12"30.12"30.12"30.12"30.15"30.15"30.18"30.18"30.18"30.18"30.15"30.15"30.12"30.12"30.09"30.09"30.09"30.09"30.09"30.09"30.12"30.12"30.12"30.09"30.09"30.09"30.09"30.06"30.09"30.09"30.09"30.09"30.09"30.09"30.06"30.06"30.03"30.03"
Wind Speed 4.9 mph3.1 mph4.2 mph6.7 mph4.8 mph5.8 mph4 mph4.8 mph3.6 mph5 mph5.6 mph5.3 mph5.1 mph4.3 mph3.5 mph3.6 mph3.4 mph3 mph3.2 mph4.5 mph6.1 mph7.3 mph8 mph8.6 mph8.7 mph9.6 mph10.5 mph10.2 mph9.1 mph8.9 mph9 mph9 mph7.6 mph5.7 mph5.2 mph4.9 mph3.8 mph3.2 mph2.9 mph2.2 mph1.5 mph2.6 mph4.5 mph7.1 mph6.3 mph5.4 mph3.8 mph0.6 mph
Wind
Direction
15°
NNE
46°
NE
113°
ESE
137°
SE
173°
S
250°
WSW
240°
WSW
225°
SW
213°
SSW
202°
SSW
205°
SSW
217°
SW
238°
WSW
263°
W
285°
WNW
270°
W
278°
W
249°
WSW
199°
SSW
173°
S
162°
SSE
151°
SSE
148°
SSE
143°
SE
142°
SE
143°
SE
147°
SSE
159°
SSE
168°
SSE
170°
S
175°
S
178°
S
177°
S
188°
S
192°
SSW
203°
SSW
212°
SSW
222°
SW
234°
SW
211°
SSW
153°
SSE
114°
ESE
120°
ESE
135°
SE
136°
SE
140°
SE
156°
SSE
176°
S

Daily Forecast

Date High Low Precip. Humidity
Today
Aug 5

Rain
86 °F
66 °F
36%
41%
Friday
Aug 6

Clouds
87 °F
70 °F
5%
45%
Saturday
Aug 7

Clouds
85 °F
71 °F
10%
50%
Sunday
Aug 8

Rain
87 °F
74 °F
20%
45%
Monday
Aug 9

Rain
89 °F
73 °F
41%
46%
Tuesday
Aug 10

Rain
93 °F
74 °F
36%
41%
Wednesday
Aug 11

Clear
95 °F
78 °F
0%
42%
Thursday
Aug 12

Rain
95 °F
80 °F
74%
40%
Friday
Aug 13

Rain
82 °F
75 °F
100%
66%
Saturday
Aug 14

Rain
86 °F
74 °F
100%
62%
Sunday
Aug 15

Rain
84 °F
74 °F
100%
73%
Monday
Aug 16

Rain
85 °F
74 °F
98%
57%
Tuesday
Aug 17

Rain
88 °F
73 °F
52%
70%
Wednesday
Aug 18

Rain
95 °F
74 °F
100%
44%
Thursday
Aug 19

Rain
90 °F
74 °F
85%
51%
Friday
Aug 20

Rain
91 °F
78 °F
75%
53%

Temperature 8-14 Day Outlook



Precipitation 8-14 Day Outlook




Quick Links
Baltimore News
Baltimore Photos
Baltimore Videos




About Us
Contact Us
Site Map
Search Site
Advertise With Us
   
Baltimore.USCoast.info
THE BALTIMORE WEBSITE

Copyright 2021, Coastal Town
Privacy    |    Legal